Mumbai, India

12:01 AM IST on December 08, 2016 (GMT +0530)
Chhatrapati Shivaji International

Weather History for VABB - January, 2014

Change the Weather History Date:

Monday, January 20, 2014

  Actual Average Record
Temperature  
Mean Temperature 75 °F -  
Max Temperature 86 °F 84 °F 91 °F (1999)
Min Temperature 64 °F 66 °F 54 °F (2013)
Cooling Degree Days 10    
Growing Degree Days 25 (Base 50)    
Moisture  
Dew Point 65 °F    
Average Humidity 69    
Maximum Humidity 88    
Minimum Humidity 32    
Precipitation  
Precipitation 0.00 in - - ()
Sea Level Pressure  
Sea Level Pressure 29.98 in    
Wind  
Wind Speed 3 mph ()    
Max Wind Speed 10 mph    
Max Gust Speed -    
Visibility 1.1 miles    
Events      
Averages and records for this station are not official NWS values.
T = Trace of Precipitation, MM = Missing Value Source: Averaged Metar Reports

Daily Weather History Graph

Daily Weather History Graph

Search for Another Location

Airport or City:

Trip Planner

Search our weather history database for the weather conditions in past years. The results will help you decide how hot, cold, wet, or windy it might be!

Date:

Astronomy

Jan. 20, 2014 Rise Set
Actual Time 7:14 AM IST 6:24 PM IST
Civil Twilight 6:51 AM IST 6:47 PM IST
Nautical Twilight 6:24 AM IST 7:14 PM IST
Astronomical Twilight 5:58 AM IST 7:40 PM IST
Moon 9:53 PM IST (1/20) 9:36 AM IST (1/20)
Length of Visible Light 11h 56m
Length of Day
11h 09m
Waning Gibbous, 86% of the Moon is Illuminated
Jan 20
Waning Gibbous
Jan 24
Last Quarter
Jan 31
New
Feb 7
First Quarter
Feb 15
Full

Hourly Weather History & Observations

Time (IST) Temp. Heat Index Dew Point Humidity Pressure Visibility Wind Dir Wind Speed Gust Speed Precip Events Conditions
12:40 AM 73.4 °F - 62.6 °F 69% 30.01 in 0.9 mi East 3.5 mph - N/A   Haze
1:10 AM 73.4 °F - 62.6 °F 69% 29.98 in 0.9 mi East 3.5 mph - N/A   Haze
1:40 AM 71.6 °F - 64.4 °F 78% 29.98 in 0.9 mi Calm Calm - N/A   Haze
2:10 AM 71.6 °F - 64.4 °F 78% 29.98 in 0.9 mi Variable 2.3 mph - N/A   Haze
2:30 AM 68 °F - 65 °F 87% 29.97 in 1 mi Calm Calm - -   Haze
2:40 AM 71.6 °F - 64.4 °F 78% 29.98 in 1.1 mi Variable 2.3 mph - N/A   Haze
3:40 AM 71.6 °F - 64.4 °F 78% 29.95 in 0.9 mi Calm Calm - N/A   Haze
4:10 AM 71.6 °F - 64.4 °F 78% 29.95 in 0.9 mi East 4.6 mph - N/A   Haze
4:40 AM 69.8 °F - 62.6 °F 78% 29.95 in 0.9 mi East 4.6 mph - N/A   Haze
5:10 AM 71.6 °F - 62.6 °F 73% 29.95 in 0.9 mi East 4.6 mph - N/A   Haze
5:30 AM 66 °F - 63 °F 88% 29.97 in 1 mi Calm Calm - -   Haze
5:40 AM 69.8 °F - 62.6 °F 78% 29.95 in 0.9 mi East 3.5 mph - N/A   Haze
6:10 AM 69.8 °F - 62.6 °F 78% 29.98 in 0.8 mi Calm Calm - N/A   Mist
6:40 AM 69.8 °F - 62.6 °F 78% 29.98 in 0.8 mi Calm Calm - N/A   Mist
7:10 AM 71.6 °F - 62.6 °F 73% 29.98 in 0.7 mi Calm Calm - N/A   Scattered Clouds
7:40 AM 71.6 °F - 62.6 °F 73% 30.01 in 0.6 mi ESE 4.6 mph - N/A   Scattered Clouds
8:10 AM 71.6 °F - 62.6 °F 73% 30.01 in 0.6 mi ESE 5.8 mph - N/A   Haze
8:30 AM 68 °F - 64 °F 82% 30.00 in 1 mi Calm Calm - -   Haze
8:40 AM 73.4 °F - 62.6 °F 69% 30.01 in 0.8 mi East 6.9 mph - N/A   Haze
9:10 AM 75.2 °F - 62.6 °F 65% 30.04 in 0.8 mi ESE 6.9 mph - N/A   Haze
9:40 AM 77.0 °F - 62.6 °F 61% 30.04 in 0.8 mi East 4.6 mph - N/A   Haze
11:10 AM 84.2 °F 85.0 °F 62.6 °F 48% 30.04 in 1.4 mi ESE 4.6 mph - N/A   Smoke
11:30 AM 86 °F - 61 °F 32% 30.01 in 1 mi Calm Calm - -   Smoke
11:40 AM 86.0 °F 84.9 °F 57.2 °F 37% 30.01 in 1.7 mi SSE 4.6 mph - N/A   Smoke
12:10 PM 86.0 °F 84.9 °F 57.2 °F 37% 30.01 in 1.4 mi SE 3.5 mph - N/A   Smoke
12:40 PM 84.2 °F 85.6 °F 64.4 °F 51% 29.98 in 0.9 mi NNW 3.5 mph - N/A   Smoke
1:10 PM 86.0 °F 86.6 °F 62.6 °F 45% 29.98 in 0.9 mi SW 3.5 mph - N/A   Smoke
1:40 PM 84.2 °F 86.6 °F 66.2 °F 55% 29.95 in 1.2 mi West 8.1 mph - N/A   Smoke
2:30 PM 81 °F - 65 °F 50% 29.94 in 1 mi Calm Calm - -   Smoke
2:40 PM 80.6 °F 82.3 °F 64.4 °F 58% 29.95 in 1.1 mi West 8.1 mph - N/A   Smoke
3:10 PM 80.6 °F 81.8 °F 62.6 °F 54% 29.92 in 1.6 mi West 9.2 mph - N/A   Smoke
3:40 PM 80.6 °F 82.7 °F 66.2 °F 61% 29.92 in 1.1 mi West 9.2 mph - N/A   Smoke
4:10 PM 78.8 °F - 69.8 °F 74% 29.92 in 1.1 mi WNW 8.1 mph - N/A   Haze
4:40 PM 78.8 °F - 66.2 °F 65% 29.95 in 1.4 mi WNW 10.4 mph - N/A   Haze
5:10 PM 78.8 °F - 68.0 °F 69% 29.95 in 1.3 mi NW 6.9 mph - N/A   Haze
5:30 PM 78 °F - 67 °F 61% 29.95 in 1 mi NNW 5.8 mph - -   Smoke
5:40 PM 78.8 °F - 66.2 °F 65% 29.95 in 1.3 mi WNW 5.8 mph - N/A   Haze
6:10 PM 78.8 °F - 68.0 °F 69% 29.95 in 1.0 mi NNW 5.8 mph - N/A   Haze
7:10 PM 77.0 °F - 69.8 °F 78% 29.98 in 1.1 mi NW 5.8 mph - N/A   Haze
7:40 PM 77.0 °F - 69.8 °F 78% 30.01 in 1.4 mi North 5.8 mph - N/A   Haze
8:10 PM 77.0 °F - 68.0 °F 74% 30.01 in 1.3 mi NE 5.8 mph - N/A   Haze
8:30 PM 76 °F - 69 °F 72% 30.01 in 1 mi North 3.5 mph - -   Smoke
8:40 PM 77.0 °F - 68.0 °F 74% 30.01 in 1.4 mi NNW 5.8 mph - N/A   Haze
9:10 PM 77.0 °F - 68.0 °F 74% 30.01 in 1.4 mi North 4.6 mph - N/A   Haze
9:40 PM 77.0 °F - 68.0 °F 74% 30.01 in 1.4 mi NNW 4.6 mph - N/A   Haze
10:10 PM 77.0 °F - 68.0 °F 74% 30.04 in 1.1 mi North 4.6 mph - N/A   Haze
10:40 PM 77.0 °F - 68.0 °F 74% 30.04 in 1.1 mi NW 4.6 mph - N/A   Haze
11:10 PM 77.0 °F - 69.8 °F 78% 30.04 in 1.3 mi NNE 4.6 mph - N/A   Haze
11:30 PM 74 °F - 70 °F 84% 30.01 in 1 mi Calm Calm - -   Haze
11:40 PM 75.2 °F - 68.0 °F 78% 30.01 in 1.2 mi Calm Calm - N/A   Mostly Cloudy